www.pogodaiklimat.ru

Погода и климат >> Архив погоды >> Россия >> Ненецкий АО >> Нарьян-Мар


АРХИВ ПОГОДЫ в Нарьян-Маре

Время (UTC), дата Ветер
(напр.,м/с)
 
Видим.   Явления Облачность Т
(С)
Тd
(С)
f
(%)
Тe
(С)
Тes
(С)
Комфортность P
(гПа)
Po
(гПа)
Тmin
(С)
Tmax
(С)
R
(мм)
R24
(мм)
S
(см)
12 9.09 ЮЗ 5-10
{13}
20 км 9/3 600 м
[Sc Ac trans]
+15.4 +7.6 60 +14 +15 тепло 1022.3 1021.0
15 9.09 ЮЗ 4
{10}
20 км 10/10 1200 м
[Sc]
+14.3 +9.4 72 +13 +13 тепло 1020.4 1019.1 +15.6
18 9.09 З 5-10
{11}
20 км 10/10 1000 м
[Sc]
+12.7 +9.3 80 +11 +11 тепло 1019.4 1018.1
21 9.09 З 5-10
{12}
10 км слаб. ливневой дождь 10/10 700 м
[Cb calv]
+11.2 +8.5 83 +8 +8 тепло 1018.3 1017.0
00 10.09 З 8-13
{13}
10 км слаб. ливневой дождь 10/8 570 м
[Cb calv Ac und]
+10.7 +7.7 82 +7 +7 тепло 1018.0 1016.7
03 10.09 З 6-11
{13}
10 км слаб. ливневой дождь 10/10 270 м
[Cb calv]
+9.6 +8.2 91 +6 +6 по сезону 1018.9 1017.5 +9.4 0.0
06 10.09 СЗ 5-10
{12}
20 км {ливн. осадки} 10/10 300 м
[St]
+9.7 +8.1 90 +6 +6 по сезону 1020.9 1019.6
09 10.09 СЗ 3
{10}
20 км 9/9 750 м
[Sc]
+9.9 +7.6 86 +8 +8 по сезону 1023.8 1022.5
12 10.09 С 3 20 км 10/10 600 м
[Sc]
+9.3 +5.4 77 +7 +7 по сезону 1025.9 1024.6
15 10.09 СЗ 2 20 км 10/10 500 м
[Sc]
+8.2 +5.1 81 +6 +6 по сезону 1026.7 1025.4 +10.5 0.0
18 10.09 ЮВ 1 20 км 10/10 570 м
[Sc]
+7.2 +5.4 88 +6 +6 по сезону 1026.0 1024.6
21 10.09 Ю 1 20 км 10/10 300 м
[St]
+7.4 +6.1 91 +6 +6 по сезону 1025.1 1023.7
00 11.09 Ю 1 4000 м слаб. морось 10/10 150 м
[St]
+7.6 +7.3 98 +7 +7 тепло 1023.8 1022.4
03 11.09 в посл. час туман н/о +7.0 1021.8 1020.4 +7.1 0.0
06 11.09 ЮЗ 2 20 км {морось, туман} 9/0
[Ac trans]
+12.0 +9.3 84 +11 +12 тепло 1020.2 1018.9
09 11.09 ЮЗ 2 20 км 6/0
[Ac trans Ci fib]
+15.1 +9.1 67 +15 +18 тепло 1019.2 1017.9
12 11.09 ЮЗ 3 20 км 3/3 600 м
[Sc]
+16.7 +10.0 65 +17 +18 тепло 1018.8 1017.6
15 11.09 ЮЗ 1 20 км {ливн. осадки} 3/1 1000 м
[Sc Ci fib]
+13.1 +10.9 86 +13 +13 тепло 1019.1 1017.8 +17.5 0.4
18 11.09 ЮЗ 1 20 км {ливн. осадки} 4/0
[Ac lent]
+8.6 +8.0 96 +8 +8 тепло 1019.5 1018.2
21 11.09 ЮЗ 2 20 км 4/0
[Ac lent]
+8.0 +7.7 98 +6 +6 по сезону 1019.1 1017.8
00 12.09 ЮЗ 2 20 км 4/0
[Ac trans]
+6.7 +6.5 99 +4 +4 по сезону 1018.8 1017.5
03 12.09 Ю 2 20 км 6/0
[Ac lent Ci fib]
+7.7 +7.4 98 +5 +6 по сезону 1017.2 1015.9 +5.3
06 12.09 Ю 3 20 км 10/10 1080 м
[Sc]
+12.0 +10.6 91 +10 +10 тепло 1015.4 1014.1
09 12.09 Ю 4 20 км гроза без осадков 8/5 600 м
[Cb calv Ac cuf]
+15.9 +12.8 82 +15 +16 тепло 1013.3 1012.0
12 12.09 Ю 3 20 км {гроза} 4/1 1000 м
[Cu med, cong Ac cuf Ci ing]
+17.8 +14.5 81 +18 +19 тепло 1011.8 1010.5
15 12.09 Ю 2 10 км гроза, ливневой дождь 9/8 480 м
[Cb cap Ac cuf]
+16.5 +14.7 89 +17 +17 тепло 1010.8 1009.5 +18.9 0.0
18 12.09 Ю 3 10 км слаб. ливневой дождь {гроза} 10/10 800 м
[Cb cap]
+13.5 +12.6 94 +12 +12 тепло 1009.3 1008.0
21 12.09 штиль 0 4000 м дымка {ливн. осадки} 4/0
[Ac trans]
+9.6 +9.3 98 +9 +9 тепло 1008.4 1007.1
00 13.09 Ю 1 500 м туман {ливн. осадки} ?/? +7.8 +7.7 99 +7 +7 тепло 1007.5 1006.1
03 13.09 ЮЗ 1 500 м туман ?/? +8.5 +8.4 99 +8 +8 тепло 1006.8 1005.5 +7.4 0.9
06 13.09 ЮЗ 2 20 км {туман} 10/10 240 м
[St]
+12.8 +11.8 94 +12 +12 тепло 1005.8 1004.5
09 13.09 ЮЗ 2 20 км {ливн. осадки} 10/10 270 м
[St]
+13.6 +12.7 94 +13 +13 тепло 1005.2 1003.9
12 13.09 Ю 3 20 км {ливн. осадки} 9/4 1000 м
[Sc Ac trans]
+15.6 +11.9 79 +15 +15 тепло 1004.3 1003.0
15 13.09 Ю 1 10 км слаб. ливневой дождь 9/8 1300 м
[Sc Ac trans]
+12.9 +11.5 91 +13 +13 тепло 1003.8 1002.5 +15.8 3
18 13.09 Ю 2 20 км {ливн. осадки} 9/4 1000 м
[Sc Ac trans]
+11.1 +10.0 93 +10 +10 тепло 1003.1 1001.8
21 13.09 Ю 2 20 км 3/0
[Ci fib]
+9.7 +8.9 95 +8 +8 тепло 1002.7 1001.4
00 14.09 Ю 2 20 км 3/0
[Ci fib]
+6.2 +6.1 99 +4 +4 по сезону 1002.4 1001.1
03 14.09 Ю 1 20 км 9/4 1000 м
[Sc Ac As]
+8.2 +8.0 99 +7 +7 тепло 1002.4 1001.1 +6.0 0.0
06 14.09 Ю 1 20 км {ливн. осадки} 10/10 900 м
[Sc]
+11.2 +10.2 94 +11 +11 тепло 1002.3 1001.0
09 14.09 Ю 1 20 км 9/8 750 м
[Sc Ac trans]
+14.9 +11.2 79 +15 +16 тепло 1002.4 1001.1
12 14.09 В 2 20 км 6/4 600 м
[Sc Ac trans]
+15.8 +10.9 73 +16 +16 тепло 1001.6 1000.3
15 14.09 В 1 20 км 8/3 1000 м
[Sc Ac trans Ci fib]
+12.4 +10.6 89 +12 +12 тепло 1001.0 999.8 +16.2 0.0
18 14.09 В 1 20 км 8/0
[Ac trans Ci fib]
+10.4 +9.5 94 +10 +10 тепло 999.4 998.1
21 14.09 В 3 20 км 8/0
[Ac trans Ci fib]
+9.2 +8.6 96 +7 +7 тепло 996.8 995.5
00 15.09 В 3 1000 м дымка 10/10 120 м
[St]
+9.7 +9.4 98 +7 +7 тепло 994.0 992.7
03 15.09 В 4
{10}
10 км слаб. ливневой дождь 10/10 240 м
[Cb cap]
+10.3 +9.8 97 +8 +8 тепло 990.7 989.5 +8.6 5
06 15.09 В 2
{10}
20 км в посл. час ливневой дождь 10/10 210 м
[Cb cap]
+10.7 +10.4 98 +9 +9 тепло 988.6 987.3
09 15.09 ЮВ 4
{10}
20 км {ливн. осадки} 9/9 600 м
[Sc]
+10.9 +7.6 80 +9 +9 тепло 988.8 987.5
12 15.09 ЮВ 3
{10}
20 км {ливн. осадки} 10/10 1320 м
[Sc]
+9.6 +7.6 87 +7 +7 по сезону 988.6 987.3
15 15.09 ЮВ 4 10 км слаб. ливневой дождь 10/10 420 м
[Cb cap]
+8.5 +7.3 92 +5 +5 по сезону 987.8 986.5 +11.6 8
18 15.09 В 3 20 км {ливн. осадки} 10/9 720 м
[Sc Ac und]
+7.8 +6.8 93 +5 +5 по сезону 986.5 985.2
21 15.09 В 3 10 км слаб. ливневой дождь 10/8 570 м
[Cb calv Ac und]
+7.1 +6.3 95 +4 +4 по сезону 985.2 983.9
00 16.09 В 3 10 км слаб. ливневой дождь 10/8 720 м
[Cb calv Ac und]
+6.3 +5.3 93 +3 +3 по сезону 984.5 983.2
03 16.09 В 4 4000 м ливневой дождь 10/10 270 м
[Cb cap]
+6.2 +5.8 97 +2 +2 по сезону 984.1 982.8 +5.9 3
06 16.09 В 4 20 км {ливн. осадки} 10/8 420 м
[Sc Ac und]
+7.1 +5.5 90 +3 +4 по сезону 984.1 982.8
09 16.09 В 3 10 км слаб. дождь 10/6 360 м
[Frnb As op]
+7.1 +5.9 92 +4 +4 по сезону 985.0 983.7

 

Местоположение метеостанции Нарьян-Мар (Ненецкий АО, Россия): широта 67.63 долгота 53.02 высота над уровнем моря 12 м.

В архиве по умолчанию представлена погода в Нарьян-Маре за последнюю неделю. Архивные данные за месяц целиком и за предыдущие месяцы, начиная с января 2011 года, Вы можете получить, выбрав интересующий диапазон дат из раскрывающегося списка и нажав кнопку "Ввод!".


*Определитесь, кто Вы:
робот инопланетянин человек

Внимание! Время в таблицах - всемирное. Для получения местного времени необходимо прибавить поправку, которая равна 3 ч.

Смотрите также архив погоды в соседних городах и на ближайших метеорологических станциях:

Погода в Коткино (Ненецкий АО, Россия) (105 км)
Погода в Сенгейском Шаре (Ненецкий АО, Россия) (120 км)
Погода на Мысе Константиновском (Ненецкий АО, Россия) (145 км)
Погода в Ходоварихе (Ненецкий АО, Россия) (148 км)
Погода в Окуневом Носу (Коми, Россия) (155 км)
Погода в Индиге (Ненецкий АО, Россия) (184 км)
Погода в Бугрино (Ненецкий АО, Россия) (200 км)
Погода в Мутном Материке (Коми, Россия) (209 км)
Погода в Хорей-Вере (Ненецкий АО, Россия) (214 км)
Погода в Варандее (Ненецкий АО, Россия) (245 км)

Пояснения к столбцам:

Ветер - указаны скорость ветра в м/с - средняя за 10 мин, порывы в срок и между сроками (в фигурных скобках) и направление, откуда дует ветер: С - северный, СВ - северо-восточный, В - восточный, ЮВ - юго-восточный, Ю - южный, ЮЗ - юго-западный, З - западный, СЗ - северо-западный.
Видимость - горизонтальная дальность видимости в метрах или километрах. При видимости от 1 до 10 км при отсутствии осадков обычно наблюдается дымка, при ухудшении видимости до 1 км и менее - туман. В сухую погоду видимость может ухудшаться дымом, пылью или мглою.
Явления - указаны атмосферные явления, наблюдавшиеся в срок или в последний час перед сроком; фигурными скобками обозначены явления, наблюдавшиеся между сроками (за 1-3 часа до срока); квадратными скобками обозначены град или гололедные отложения с указанием их диаметра в мм.
Облачность - указаны через наклонную черту общая и нижняя облачность в баллах и высота нижней границы облаков в метрах; квадратными скобками обозначены формы облаков: Ci - перистые, Cs - перисто-слоистые, Cc - перисто-кучевые, Ac - высококучевые, As - высокослоистые, Sc - слоисто-кучевые, Ns - слоисто-дождевые, Cu - кучевые, Cb - кучево-дождевые. Подробнее классификацию облаков см. в Атласе облаков (PDF).
T - Температура воздуха - температура, измеренная на высоте 2 м над землей.
Td - Температура точки росы - температура, при понижении до которой содержащийся в воздухе водяной пар достигнет насыщения.
f - Относительная влажность воздуха - влажноcть воздуха, измеренная на высоте 2 м над землей.
Te - Эффективная температура - температура, которую ощущает одетый по сезону человек в тени. Характеристика душности погоды. При расчете учитывается влияние влажности воздуха и скорости ветра на теплоощущения человека.
Tes - Эффективная температура на солнце - температура, которую ощущает человек, с поправкой на солнечный нагрев. Характеристика знойности погоды. Зависит от высоты солнца над горизонтом, облачности и скорости ветра. Ночью, в пасмурную погоду, а также при ветре 12 м/с и более поправка равна нулю.
P - Атмосферное давление - приведенное к уровню моря атмосферное давление.
Po - Атмосферное давление - измеренное на уровне метеостанции атмосферное давление.
Tmin - Минимальная температура - минимум температуры воздуха на высоте 2 м над землей.
Tmax - Максимальная температура - максимум температуры воздуха на высоте 2 м над землей.
R - Количество осадков - Количество выпавших осадков за период времени, мм. При наведении курсора мыши на число - период времени, за который выпало указанное количество осадков.
R24 - Количество осадков - Количество выпавших осадков за 24 часа, мм.
S - Снежный покров - Высота снежного покрова, см. При наведении курсора мыши на число - состояние снежного покрова и степень покрытия местности в баллах.